Regional Weather Roundup
Issued by NWS Jackson, KY

Home | Current Version | Previous Version | Text Only | Print | Product List | Glossary Off
Versions: 1 2 3 4 5 6 7 8 9 10 11 12 13 14 15 16 17 18 19 20 21 22 23 24 25 26 27 28 29 30 31 32 33 34 35 36 37 38 39 40 41 42 43 44 45 46 47 48 49 50

000
ASUS43 KJKL 182019
RWRJKL

EAST KENTUCKY HOURLY WEATHER ROUNDUP
NATIONAL WEATHER SERVICE JACKSON KY
400 PM EDT THU SEP 18 2014

NOTE: "FAIR" INDICATES FEW OR NO CLOUDS BELOW 12,000 FEET WITH
NO SIGNIFICANT WEATHER AND/OR OBSTRUCTIONS TO VISIBILITY.

* THESE REPORTS ARE NOT UNDER NWS QUALITY CONTROL AND MAY NOT
  REPORT WEATHER SUCH AS PRECIPITATION AND FOG.

KYZ079-080-083-085-087-088-110-112-115-119-120-182100
...EASTERN KENTUCKY...

CITY           SKY/WX    TMP DP  RH WIND       PRES   REMARKS
JACKSON        PTSUNNY   68  55  63 CALM      30.05S
LONDON         MOSUNNY   75  53  46 VRB5      30.03F
MONTICELLO*    PTSUNNY   76  58  53 VRB5      30.04S
WILLIAMSBURG*  MOSUNNY   73  55  53 CALM      30.03S
MIDDLESBORO*   MOSUNNY   76  54  46 NW5       30.01S
HARLAN APT*    CLEAR     72  45  37 MISG      30.02F
HAZARD APT*    CLEAR     72  54  53 CALM      30.04S
BLACK MTN*       N/A     63  52  67 W1          N/A
PIKEVILLE APT* SUNNY     70  54  56 E5        30.04F
BIG SANDY*     PTCLDY    71  55  56 N5        30.04F
MOREHEAD APT*  PTCLDY    72  50  46 CALM      30.07S
$$

KYZ035-036-041-042-044-050-067-078-099-182100
...CENTRAL KENTUCKY...

CITY           SKY/WX    TMP DP  RH WIND       PRES   REMARKS
MT STERLING*   PTSUNNY   72  52  49 E6        30.06F
FLEMING/MASON* MOSUNNY   72  48  43 NE3       30.07S
DANVILLE*      MOSUNNY   72  52  49 E8        30.05F
RICHMOND*      MOSUNNY   72  52  49 NE3       30.04F
LEXINGTON      MOSUNNY   73  53  49 NE8       30.05F
FRANKFORT      MOSUNNY   73  50  44 NE8       30.05F
$$

KYZ091>093-OHZ055-061-077-WVZ005-015-034-035-042-182100
...SOUTHERN OHIO/WEST VIRGINIA...

CITY           SKY/WX    TMP DP  RH WIND       PRES   REMARKS
COVINGTON      MOSUNNY   72  47  40 E7G16     30.07S
COLUMBUS       MOSUNNY   74  45  35 E7        30.07F
DAYTON         MOSUNNY   73  45  36 NE8       30.10S
WILMINGTON     SUNNY     71  44  37 MISG      30.08S
HUNTINGTON     MOSUNNY   71  51  49 NE6       30.04F
CHARLESTON     PTSUNNY   70  53  54 E3        30.04F
PINEVILLE*     PTSUNNY   74  58  57 MISG      30.08F
BECKLEY        SUNNY     69  47  45 CALM      30.06F
BLUEFIELD      PTSUNNY   72  49  44 NE3       30.07F
$$

VAZ002-007-008-TNZ017-027-036-066-071-182100
...SOUTHWEST VIRGINIA/EAST TENNESSEE...

CITY           SKY/WX    TMP DP  RH WIND       PRES   REMARKS
WISE*          SUNNY     70  46  43 N3        30.08F
JONESVILLE*    CLEAR     75  50  41 CALM      30.03F
ABINGDON*      CLOUDY    71  56  57 NW3       30.04F
BRISTOL        PTSUNNY   77  52  41 N7        30.01F
KNOXVILLE      CLOUDY    78  55  44 E7        29.97F
OAK RIDGE      PTSUNNY   79  53  40 CALM      30.00F
CROSSVILLE     PTSUNNY   75  53  46 VRB3      30.02F
NASHVILLE      CLOUDY    77  57  50 N6        29.99F
$$

...KEY TO REMARKS...
VSB - VISIBILITY IN MILES
WCI - WIND CHILL INDEX
HX  - HEAT INDEX

$$



USA.gov is the U.S. government's official web portal to all federal, state and local government web resources and services.